Junction, TX

11:12 PM CDT on October 23, 2017 (GMT -0500)
Kimble County

Weather History for KJCT - December, 2012

Change the Weather History Date:

Saturday, December 29, 2012

  Actual Average Record
Temperature  
Mean Temperature 34 °F -  
Max Temperature 46 °F 59 °F 75 °F (1999)
Min Temperature 21 °F 30 °F 19 °F (2007)
Degree Days  
Heating Degree Days 32    
Moisture  
Dew Point 14 °F    
Average Humidity 44    
Maximum Humidity 68    
Minimum Humidity 22    
Precipitation  
Precipitation 0.00 in - - ()
Sea Level Pressure  
Sea Level Pressure 30.34 in    
Wind  
Wind Speed 1 mph (East)    
Max Wind Speed 5 mph    
Max Gust Speed -    
Visibility 8 miles    
Events      
Averages and records for this station are not official NWS values.
T = Trace of Precipitation, MM = Missing Value Source: NWS Daily Summary

Daily Weather History Graph

Daily Weather History Graph

Search for Another Location

Airport or City:

Trip Planner

Search our weather history database for the weather conditions in past years. The results will help you decide how hot, cold, wet, or windy it might be!

Date:

Astronomy

Dec. 29, 2012 Rise Set
Actual Time 7:35 AM CST 5:47 PM CST
Civil Twilight 7:08 AM CST 6:13 PM CST
Nautical Twilight 6:38 AM CST 6:43 PM CST
Astronomical Twilight 6:09 AM CST 7:13 PM CST
Moon 7:14 PM CST (12/29) 8:15 AM CST (12/29)
Length of Visible Light 11h 05m
Length of Day
10h 12m
Full, 98% of the Moon is Illuminated
Dec 29
Full
Jan 4
Last Quarter
Jan 11
New
Jan 18
First Quarter
Jan 26
Full

Hourly Weather History & Observations

Time (CST) Temp. Windchill Dew Point Humidity Pressure Visibility Wind Dir Wind Speed Gust Speed Precip Events Conditions
12:51 AM 32.0 °F - 18.0 °F 56% 30.20 in 8.0 mi Calm Calm - N/A   Clear
1:51 AM 30.0 °F - 18.0 °F 61% 30.21 in 8.0 mi Calm Calm - N/A   Clear
2:51 AM 28.0 °F - 16.0 °F 61% 30.22 in 8.0 mi Calm Calm - N/A   Clear
3:51 AM 26.1 °F - 15.1 °F 63% 30.26 in 8.0 mi Calm Calm - N/A   Clear
4:51 AM 24.1 °F - 14.0 °F 65% 30.27 in 8.0 mi Calm Calm - N/A   Clear
5:51 AM 21.9 °F - 12.9 °F 68% 30.29 in 8.0 mi Calm Calm - N/A   Clear
6:51 AM 21.9 °F - 12.9 °F 68% 30.32 in 8.0 mi Calm Calm - N/A   Clear
7:51 AM 24.1 °F - 14.0 °F 65% 30.35 in 6.0 mi Calm Calm - N/A   Haze
8:51 AM 27.0 °F - 16.0 °F 63% 30.38 in 6.0 mi Calm Calm - N/A   Haze
9:51 AM 32.0 °F - 17.1 °F 54% 30.40 in 7.0 mi Calm Calm - N/A   Clear
10:51 AM 39.0 °F 36.8 °F 15.1 °F 38% 30.42 in 7.0 mi South 3.5 mph - N/A   Clear
11:51 AM 42.1 °F - 16.0 °F 35% 30.40 in 8.0 mi Calm Calm - N/A   Clear
12:51 PM 46.9 °F - 16.0 °F 29% 30.37 in 9.0 mi Variable 4.6 mph - N/A   Clear
1:51 PM 50.0 °F - 16.0 °F 26% 30.35 in 8.0 mi SE 4.6 mph - N/A   Clear
2:51 PM 50.0 °F - 12.9 °F 23% 30.35 in 8.0 mi East 4.6 mph - N/A   Clear
3:51 PM 51.1 °F - 12.9 °F 22% 30.33 in 8.0 mi Calm Calm - N/A   Clear
4:51 PM 51.1 °F - 14.0 °F 23% 30.34 in 8.0 mi ENE 4.6 mph - N/A   Clear
5:51 PM 46.9 °F - 14.0 °F 27% 30.35 in 8.0 mi NE 3.5 mph - N/A   Clear
6:51 PM 43.0 °F 41.3 °F 14.0 °F 31% 30.36 in 9.0 mi ENE 3.5 mph - N/A   Clear
7:51 PM 39.9 °F - 14.0 °F 35% 30.37 in 9.0 mi Calm Calm - N/A   Clear
8:51 PM 35.1 °F - 12.9 °F 40% 30.38 in 9.0 mi Calm Calm - N/A   Clear
9:51 PM 34.0 °F - 12.9 °F 42% 30.38 in 9.0 mi Calm Calm - N/A   Clear
10:51 PM 33.1 °F - 12.0 °F 42% 30.38 in 9.0 mi Calm Calm - N/A   Clear
11:51 PM 30.9 °F - 12.0 °F 46% 30.37 in 9.0 mi Calm Calm - N/A   Clear